When you browse on this site, cookies collect data to enhance your experience and personalize the content and advertising you see.
Visit our Privacy Policy to learn more. By continuing to use the site, you agree to this use of cookies and data.
  • In Hungary
  • List of Countries
  • For 7 days
  • Water Temperature
  • Weather Map
  • News
  • Weather Widgets
  • user-avatar
    Login

    Hourly Weather Posele

    Today, 23 January, Thursday

    Time Temperature Precipitation Wind Pressure Humidity
    00:00 -6°C° 0.1 mm 6 mps 734 mmHg 79%
    01:00 -8°C° 0.1 mm 6 mps 735 mmHg 78%
    02:00 -6°C° 0 mm 6 mps 735 mmHg 75%
    03:00 -8°C° 0 mm 6 mps 735 mmHg 72%
    04:00 -8°C° 0 mm 6 mps 736 mmHg 69%
    05:00 -8°C° 0 mm 6 mps 736 mmHg 66%
    06:00 -8°C° 0 mm 6 mps 737 mmHg 63%
    07:00 -8°C° 0 mm 6 mps 737 mmHg 60%
    08:00 -8°C° 0 mm 6 mps 738 mmHg 56%
    09:00 -8°C° 0 mm 6 mps 738 mmHg 54%
    10:00 -8°C° 0 mm 6 mps 738 mmHg 53%
    11:00 -8°C° 0 mm 6 mps 739 mmHg 52%
    12:00 -6°C° 0 mm 6 mps 739 mmHg 54%
    13:00 -6°C° 0 mm 6 mps 739 mmHg 57%
    14:00 -6°C° 0 mm 6 mps 740 mmHg 60%
    15:00 -6°C° 0 mm 5 mps 740 mmHg 62%
    16:00 -6°C° 0 mm 5 mps 740 mmHg 63%
    17:00 -5°C° 0 mm 4 mps 740 mmHg 64%
    18:00 -5°C° 0 mm 4 mps 740 mmHg 65%
    19:00 -5°C° 0 mm 4 mps 740 mmHg 66%
    20:00 -5°C° 0 mm 3 mps 740 mmHg 66%
    21:00 -5°C° 0 mm 3 mps 739 mmHg 69%
    22:00 -5°C° 0 mm 3 mps 739 mmHg 72%
    23:00 -5°C° 0 mm 3 mps 738 mmHg 76%

    Tomorrow, 24 January, Friday

    Time Temperature Precipitation Wind Pressure Humidity
    00:00 -5°C° 0.1 mm 3 mps 738 mmHg 81%
    01:00 -4°C° 0.1 mm 4 mps 738 mmHg 86%
    02:00 -4°C° 0.1 mm 4 mps 737 mmHg 91%
    03:00 -4°C° 0 mm 4 mps 736 mmHg 89%
    04:00 -5°C° 0 mm 5 mps 735 mmHg 87%
    05:00 -4°C° 0 mm 5 mps 734 mmHg 85%
    06:00 -4°C° 0.3 mm 5 mps 733 mmHg 89%
    07:00 -4°C° 0.3 mm 5 mps 733 mmHg 92%
    08:00 -3°C° 0.3 mm 4 mps 732 mmHg 95%
    09:00 -2°C° 0.1 mm 5 mps 732 mmHg 95%
    10:00 -1°C° 0.1 mm 5 mps 731 mmHg 95%
    11:00 0°C° 0.1 mm 5 mps 731 mmHg 95%
    12:00 0°C° 0.1 mm 5 mps 730 mmHg 94%
    13:00 +1°C° 0.1 mm 5 mps 730 mmHg 92%
    14:00 +1°C° 0.1 mm 5 mps 729 mmHg 91%
    15:00 +1°C° 0.2 mm 5 mps 729 mmHg 92%
    16:00 0°C° 0.2 mm 5 mps 729 mmHg 93%
    17:00 0°C° 0.2 mm 5 mps 728 mmHg 95%
    18:00 0°C° 0.6 mm 5 mps 729 mmHg 95%
    19:00 -1°C° 0.6 mm 4 mps 729 mmHg 96%
    20:00 -1°C° 0.6 mm 4 mps 729 mmHg 96%
    21:00 -1°C° 0 mm 4 mps 729 mmHg 95%
    22:00 -2°C° 0 mm 4 mps 730 mmHg 94%
    23:00 -2°C° 0 mm 4 mps 730 mmHg 93%

    Day after tomorrow, 25 January, Saturday

    Time Temperature Precipitation Wind Pressure Humidity
    00:00 -2°C° 0 mm 4 mps 730 mmHg 92%
    01:00 -3°C° 0 mm 4 mps 730 mmHg 91%
    02:00 -3°C° 0 mm 4 mps 729 mmHg 90%
    03:00 -2°C° 0 mm 4 mps 729 mmHg 90%
    04:00 -2°C° 0 mm 5 mps 729 mmHg 90%
    05:00 -2°C° 0 mm 5 mps 728 mmHg 90%
    06:00 -3°C° 0.1 mm 6 mps 728 mmHg 87%
    07:00 -3°C° 0.1 mm 6 mps 728 mmHg 84%
    08:00 -3°C° 0.1 mm 6 mps 728 mmHg 81%
    09:00 -3°C° 0.3 mm 7 mps 728 mmHg 77%
    10:00 -3°C° 0.3 mm 7 mps 728 mmHg 73%
    11:00 -3°C° 0.3 mm 7 mps 728 mmHg 70%
    12:00 -3°C° 0.3 mm 7 mps 728 mmHg 70%
    13:00 -3°C° 0.3 mm 7 mps 728 mmHg 70%
    14:00 -3°C° 0.3 mm 7 mps 728 mmHg 71%
    15:00 -4°C° 0.1 mm 7 mps 729 mmHg 74%
    16:00 -4°C° 0.1 mm 7 mps 729 mmHg 77%
    17:00 -6°C° 0.1 mm 7 mps 730 mmHg 80%
    18:00 -6°C° 0.1 mm 7 mps 730 mmHg 79%
    19:00 -5°C° 0.1 mm 6 mps 731 mmHg 77%
    20:00 -5°C° 0.1 mm 6 mps 732 mmHg 76%
    21:00 -5°C° 0.1 mm 6 mps 732 mmHg 79%
    22:00 -5°C° 0.1 mm 6 mps 733 mmHg 82%
    23:00 -5°C° 0.1 mm 6 mps 733 mmHg 85%

    26 January, Sunday

    Time Temperature Precipitation Wind Pressure Humidity
    00:00 -6°C° 0.1 mm 6 mps 734 mmHg 83%
    01:00 -6°C° 0.1 mm 6 mps 735 mmHg 81%
    02:00 -6°C° 0.1 mm 5 mps 736 mmHg 78%
    03:00 -6°C° 0 mm 5 mps 736 mmHg 78%
    04:00 -6°C° 0 mm 5 mps 737 mmHg 78%
    05:00 -5°C° 0 mm 4 mps 738 mmHg 78%
    06:00 -7°C° 0 mm 4 mps 738 mmHg 80%
    07:00 -7°C° 0 mm 4 mps 739 mmHg 81%
    08:00 -6°C° 0 mm 3 mps 740 mmHg 82%
    09:00 -5°C° 0 mm 3 mps 740 mmHg 82%
    10:00 -5°C° 0 mm 3 mps 741 mmHg 81%
    11:00 -4°C° 0 mm 3 mps 742 mmHg 80%
    12:00 -4°C° 0 mm 3 mps 742 mmHg 79%
    13:00 -4°C° 0 mm 3 mps 742 mmHg 77%
    14:00 -2°C° 0 mm 3 mps 742 mmHg 76%
    15:00 -4°C° 0 mm 3 mps 742 mmHg 77%
    16:00 -4°C° 0 mm 3 mps 742 mmHg 79%
    17:00 -3°C° 0 mm 2 mps 742 mmHg 81%
    18:00 -3°C° 0.1 mm 2 mps 742 mmHg 85%
    19:00 -3°C° 0.1 mm 2 mps 742 mmHg 90%
    20:00 -3°C° 0.1 mm 2 mps 742 mmHg 94%
    21:00 -2°C° 0.3 mm 2 mps 741 mmHg 95%
    22:00 -2°C° 0.3 mm 3 mps 741 mmHg 96%
    23:00 -1°C° 0.3 mm 3 mps 741 mmHg 97%

    27 January, Monday

    Time Temperature Precipitation Wind Pressure Humidity
    00:00 0°C° 0.4 mm 3 mps 741 mmHg 97%
    01:00 0°C° 0.4 mm 3 mps 741 mmHg 97%
    02:00 +1°C° 0.4 mm 3 mps 740 mmHg 96%
    03:00 0°C° 0.3 mm 4 mps 740 mmHg 96%
    04:00 0°C° 0.3 mm 4 mps 740 mmHg 96%
    05:00 0°C° 0.3 mm 4 mps 740 mmHg 96%
    06:00 0°C° 0.2 mm 4 mps 740 mmHg 96%
    07:00 0°C° 0.2 mm 4 mps 740 mmHg 97%
    08:00 0°C° 0.2 mm 4 mps 740 mmHg 97%
    09:00 0°C° 0.1 mm 4 mps 740 mmHg 97%
    10:00 0°C° 0.1 mm 4 mps 740 mmHg 97%
    11:00 0°C° 0.1 mm 4 mps 740 mmHg 97%
    12:00 0°C° 0.1 mm 4 mps 740 mmHg 97%
    13:00 -1°C° 0.1 mm 4 mps 739 mmHg 96%
    14:00 -1°C° 0.1 mm 4 mps 739 mmHg 96%
    15:00 -1°C° 0 mm 4 mps 739 mmHg 96%
    16:00 -1°C° 0 mm 4 mps 739 mmHg 96%
    17:00 0°C° 0 mm 3 mps 739 mmHg 96%
    18:00 -1°C° 0 mm 3 mps 739 mmHg 95%
    19:00 -1°C° 0 mm 3 mps 739 mmHg 94%
    20:00 -1°C° 0 mm 3 mps 738 mmHg 92%
    21:00 -1°C° 0 mm 3 mps 738 mmHg 93%
    22:00 -2°C° 0 mm 2 mps 738 mmHg 93%
    23:00 -2°C° 0 mm 2 mps 738 mmHg 94%

    28 January, Tuesday

    Time Temperature Precipitation Wind Pressure Humidity
    00:00 -2°C° 0.1 mm 2 mps 737 mmHg 95%
    01:00 -2°C° 0.1 mm 2 mps 737 mmHg 96%
    02:00 -2°C° 0.1 mm 2 mps 736 mmHg 97%
    03:00 -2°C° 0.3 mm 2 mps 736 mmHg 97%
    04:00 -1°C° 0.3 mm 2 mps 735 mmHg 97%
    05:00 -1°C° 0.3 mm 2 mps 735 mmHg 98%
    06:00 -1°C° 0.3 mm 2 mps 735 mmHg 98%
    07:00 -1°C° 0.3 mm 2 mps 734 mmHg 97%
    08:00 -1°C° 0.3 mm 2 mps 734 mmHg 97%
    09:00 -1°C° 0.2 mm 2 mps 734 mmHg 97%
    10:00 -1°C° 0.2 mm 3 mps 733 mmHg 97%
    11:00 -1°C° 0.2 mm 3 mps 733 mmHg 96%
    12:00 0°C° 0 mm 3 mps 733 mmHg 93%
    13:00 0°C° 0 mm 3 mps 732 mmHg 90%
    14:00 0°C° 0 mm 3 mps 732 mmHg 88%
    15:00 0°C° 0 mm 3 mps 731 mmHg 89%
    16:00 0°C° 0 mm 3 mps 731 mmHg 90%
    17:00 0°C° 0 mm 3 mps 731 mmHg 92%
    18:00 0°C° 0 mm 3 mps 730 mmHg 93%
    19:00 0°C° 0 mm 3 mps 729 mmHg 95%
    20:00 0°C° 0 mm 4 mps 729 mmHg 96%
    21:00 0°C° 0 mm 4 mps 728 mmHg 95%
    22:00 0°C° 0 mm 4 mps 727 mmHg 93%
    23:00 0°C° 0 mm 4 mps 727 mmHg 92%
    Show more